Hourly Data Report for July 06, 2022

TORONTO CITY
ONTARIO
Current Station Operator: ECCC - MSC

43°40'00.000" N
79°24'00.000" W
112.50 m
6158355
71508
XTO

Download Data

Hourly Data (July 2022)
Hourly Data Report for July 6, 2022
TIME
LST
Temp Definition
°C
Dew Point Definition
°C
Rel Hum Definition
%
Precip. Amount Definition
mm

Wind Dir Definition
10's deg

Wind Spd Definition
km/h
Visibility Definition
km
Stn Press Definition
kPa
Hmdx Definition


Wind Chill Definition


Weather Definition


00:00 19.5 16.3 82 0.0       99.77     LegendNANA
01:00 19.1 16.2 83 0.0       99.74     LegendNANA
02:00 19.1 16.3 84 0.0       99.88     LegendNANA
03:00 19.4 16.0 81 0.0       99.83     LegendNANA
04:00 19.5 16.3 82 0.0       99.86     LegendNANA
05:00 19.2 16.0 82 0.0       99.96     LegendNANA
06:00 19.4 15.2 77 0.0       100.03     LegendNANA
07:00 19.7 15.2 75 0.0       100.05     LegendNANA
08:00 19.8 14.5 72 0.0       100.11     LegendNANA
09:00 21.1 15.2 69 0.0       100.12 25   LegendNANA
10:00 21.8 15.6 68 0.0       100.18 26   LegendNANA
11:00 21.1 15.0 68 0.0       100.21 25   LegendNANA
12:00 22.1 15.2 65 0.0       100.24 26   LegendNANA
13:00 22.3 13.9 59 0.0       100.21 26   LegendNANA
14:00 21.4 14.6 65 0.0       100.24 25   LegendNANA
15:00 22.2 14.3 61 0.0       100.26 26   LegendNANA
16:00 21.8 15.5 68 0.0       100.22 26   LegendNANA
17:00 21.7 14.8 65 0.0       100.22 26   LegendNANA
18:00 21.5 14.5 65 0.0       100.24 25   LegendNANA
19:00 21.1 14.5 66 0.0       100.25 25   LegendNANA
20:00 20.3 13.7 66 0.0       100.28     LegendNANA
21:00 19.1 13.8 71 0.0       100.32     LegendNANA
22:00 18.5 13.9 74 0.0       100.33     LegendNANA
23:00 18.4 13.5 73 0.0       100.33     LegendNANA

Notes on Data Quality.

Legend

  • E = Estimated
  • M = Missing
  • NA = Not Available*
  • [empty] = Indicates an unobserved value
Date modified: